Time,TemperatureF,DewpointF,PressureIn,WindDirection,WindDirectionDegrees,WindSpeedMPH,WindSpeedGustMPH,Humidity,HourlyPrecipIn,Conditions,Clouds,dailyrainin,SoftwareType,DateUTC
2013-04-11 00:00:00,36.3,20.8,29.96,ENE,68,2.0,10.0,53,0.00,,SKC,0.00,VWS V14.01,2013-04-11 05:00:00,
2013-04-11 00:14:00,36.2,21.0,29.95,NNE,15,5.0,-999.0,54,-99.99,,,0.00,weatherlink.com 1.10,2013-04-11 05:14:00,
2013-04-11 00:29:00,36.1,21.0,29.94,ENE,71,0.0,-999.0,54,-99.99,,,0.00,weatherlink.com 1.10,2013-04-11 05:29:00,
2013-04-11 00:30:00,36.1,21.1,29.94,ENE,68,2.0,11.0,54,0.00,,SKC,0.00,VWS V14.01,2013-04-11 05:30:00,
2013-04-11 00:44:00,36.0,21.0,29.93,ENE,65,0.0,-999.0,54,-99.99,,,0.00,weatherlink.com 1.10,2013-04-11 05:44:00,
2013-04-11 00:59:00,35.9,20.0,29.93,NNE,14,0.0,-999.0,53,-99.99,,,0.00,weatherlink.com 1.10,2013-04-11 05:59:00,
2013-04-11 01:00:00,36.0,20.5,29.93,ENE,68,2.0,18.0,53,0.00,,SKC,0.00,VWS V14.01,2013-04-11 06:00:00,
2013-04-11 01:14:00,35.9,20.0,29.93,NNE,30,4.0,-999.0,52,-99.99,,,0.00,weatherlink.com 1.10,2013-04-11 06:14:00,
2013-04-11 01:29:00,35.8,19.0,29.92,North,11,0.0,-999.0,51,-99.99,,,0.00,weatherlink.com 1.10,2013-04-11 06:29:00,
2013-04-11 01:30:00,35.8,19.5,29.92,NE,45,2.0,10.0,51,0.00,,SKC,0.00,VWS V14.01,2013-04-11 06:30:00,
2013-04-11 01:44:00,35.7,19.0,29.91,ENE,57,6.0,-999.0,51,-99.99,,,0.00,weatherlink.com 1.10,2013-04-11 06:44:00,
2013-04-11 01:59:00,35.7,19.0,29.90,NE,36,0.0,-999.0,50,-99.99,,,0.00,weatherlink.com 1.10,2013-04-11 06:59:00,
2013-04-11 02:00:00,35.7,18.9,29.90,NNE,22,2.0,12.0,50,0.00,,SKC,0.00,VWS V14.01,2013-04-11 07:00:00,
2013-04-11 02:14:00,35.6,19.0,29.89,North,355,2.0,-999.0,51,-99.99,,,0.00,weatherlink.com 1.10,2013-04-11 07:14:00,
2013-04-11 02:29:00,35.5,19.0,29.89,NE,44,0.0,-999.0,52,-99.99,,,0.00,weatherlink.com 1.10,2013-04-11 07:29:00,
2013-04-11 02:30:00,35.5,19.6,29.89,ENE,68,3.0,13.0,52,0.00,,SKC,0.00,VWS V14.01,2013-04-11 07:30:00,
2013-04-11 02:44:00,35.2,20.0,29.88,ENE,77,4.0,-999.0,54,-99.99,,,0.00,weatherlink.com 1.10,2013-04-11 07:44:00,
2013-04-11 02:59:00,34.9,20.0,29.86,NE,55,0.0,-999.0,55,-99.99,,,0.00,weatherlink.com 1.10,2013-04-11 07:59:00,
2013-04-11 03:00:00,34.8,20.3,29.86,NNE,22,3.0,13.0,55,0.00,,SKC,0.00,VWS V14.01,2013-04-11 08:00:00,
2013-04-11 03:14:00,34.6,19.0,29.86,ESE,119,13.0,-999.0,54,-99.99,,,0.00,weatherlink.com 1.10,2013-04-11 08:14:00,
2013-04-11 03:29:00,34.4,19.0,29.86,ESE,103,4.0,-999.0,54,-99.99,,,0.00,weatherlink.com 1.10,2013-04-11 08:29:00,
2013-04-11 03:30:00,34.5,19.6,29.86,NE,45,3.0,14.0,54,0.00,,SKC,0.00,VWS V14.01,2013-04-11 08:30:00,
2013-04-11 03:44:00,34.4,19.0,29.86,North,355,2.0,-999.0,53,-99.99,,,0.00,weatherlink.com 1.10,2013-04-11 08:44:00,
2013-04-11 03:59:00,34.4,19.0,29.85,NNE,33,4.0,-999.0,53,-99.99,,,0.00,weatherlink.com 1.10,2013-04-11 08:59:00,
2013-04-11 04:00:00,34.3,19.0,29.85,NE,45,3.0,13.0,53,0.00,,SKC,0.00,VWS V14.01,2013-04-11 09:00:00,
2013-04-11 04:14:00,34.2,19.0,29.85,East,94,6.0,-999.0,53,-99.99,,,0.00,weatherlink.com 1.10,2013-04-11 09:14:00,
2013-04-11 04:29:00,34.1,18.0,29.85,North,5,3.0,-999.0,53,-99.99,,,0.00,weatherlink.com 1.10,2013-04-11 09:29:00,
2013-04-11 04:30:00,34.2,18.9,29.85,NE,45,2.0,12.0,53,0.00,,SKC,0.00,VWS V14.01,2013-04-11 09:30:00,
2013-04-11 04:44:00,34.1,18.0,29.84,North,5,0.0,-999.0,53,-99.99,,,0.00,weatherlink.com 1.10,2013-04-11 09:44:00,
2013-04-11 04:59:00,33.9,19.0,29.82,North,355,0.0,-999.0,54,-99.99,,,0.00,weatherlink.com 1.10,2013-04-11 09:59:00,
2013-04-11 05:00:00,33.9,19.0,29.82,NNE,22,3.0,13.0,54,0.00,,SKC,0.00,VWS V14.01,2013-04-11 10:00:00,
2013-04-11 05:14:00,33.8,19.0,29.81,North,5,7.0,-999.0,54,-99.99,,,0.00,weatherlink.com 1.10,2013-04-11 10:14:00,
2013-04-11 05:29:00,33.7,19.0,29.80,North,5,2.0,-999.0,55,-99.99,,,0.00,weatherlink.com 1.10,2013-04-11 10:29:00,
2013-04-11 05:30:00,33.7,19.3,29.80,NNE,22,4.0,13.0,55,0.00,,SKC,0.00,VWS V14.01,2013-04-11 10:30:00,
2013-04-11 05:45:00,33.6,19.0,29.80,NNW,346,0.0,-999.0,55,-99.99,,,0.00,weatherlink.com 1.10,2013-04-11 10:45:00,
2013-04-11 06:00:00,33.5,19.0,29.80,North,11,1.0,-999.0,56,-99.99,,,0.00,weatherlink.com 1.10,2013-04-11 11:00:00,
2013-04-11 06:15:00,32.8,22.0,29.79,North,9,7.0,-999.0,64,-99.99,,,0.00,weatherlink.com 1.10,2013-04-11 11:15:00,
2013-04-11 06:30:00,32.2,22.0,29.82,NE,42,1.0,-999.0,65,-99.99,,,0.00,weatherlink.com 1.10,2013-04-11 11:30:00,
2013-04-11 06:45:00,31.7,24.0,29.86,ESE,107,0.0,-999.0,72,-99.99,,,0.00,weatherlink.com 1.10,2013-04-11 11:45:00,
2013-04-11 07:00:00,30.6,25.0,29.86,ENE,65,0.0,-999.0,81,-99.99,,,0.00,weatherlink.com 1.10,2013-04-11 12:00:00,
2013-04-11 07:15:00,29.7,26.0,29.86,ENE,78,0.0,-999.0,86,-99.99,,,0.00,weatherlink.com 1.10,2013-04-11 12:15:00,
2013-04-11 07:30:00,29.2,26.0,29.82,NNW,331,2.0,-999.0,89,-99.99,,,0.00,weatherlink.com 1.10,2013-04-11 12:30:00,
2013-04-11 07:45:00,28.8,27.0,29.80,NNE,18,3.0,-999.0,92,-99.99,,,0.00,weatherlink.com 1.10,2013-04-11 12:45:00,
2013-04-11 08:00:00,28.9,27.0,29.82,ESE,118,0.0,-999.0,93,-99.99,,,0.00,weatherlink.com 1.10,2013-04-11 13:00:00,
2013-04-11 08:15:00,29.0,28.0,29.81,NE,44,1.0,-999.0,94,-99.99,,,0.00,weatherlink.com 1.10,2013-04-11 13:15:00,
2013-04-11 08:30:00,29.2,28.0,29.81,East,80,3.0,-999.0,94,-99.99,,,0.00,weatherlink.com 1.10,2013-04-11 13:30:00,
2013-04-11 08:45:00,29.4,28.0,29.80,East,95,2.0,-999.0,94,-99.99,,,0.00,weatherlink.com 1.10,2013-04-11 13:45:00,
2013-04-11 09:00:00,29.5,28.0,29.80,East,95,1.0,-999.0,94,-99.99,,,0.00,weatherlink.com 1.10,2013-04-11 14:00:00,
2013-04-11 09:15:00,29.6,28.0,29.79,NE,44,3.0,-999.0,94,-99.99,,,0.00,weatherlink.com 1.10,2013-04-11 14:15:00,
2013-04-11 09:30:00,29.7,28.0,29.79,East,86,1.0,-999.0,94,-99.99,,,0.00,weatherlink.com 1.10,2013-04-11 14:30:00,
2013-04-11 09:45:00,29.7,28.0,29.78,NNE,23,2.0,-999.0,94,-99.99,,,0.00,weatherlink.com 1.10,2013-04-11 14:45:00,
2013-04-11 10:00:00,29.8,28.0,29.78,NNE,28,6.0,-999.0,94,-99.99,,,0.00,weatherlink.com 1.10,2013-04-11 15:00:00,
2013-04-11 10:15:00,30.1,29.0,29.78,SE,134,6.0,-999.0,94,-99.99,,,0.00,weatherlink.com 1.10,2013-04-11 15:15:00,
2013-04-11 10:30:00,30.5,29.0,29.78,ESE,103,4.0,-999.0,94,-99.99,,,0.00,weatherlink.com 1.10,2013-04-11 15:30:00,
2013-04-11 10:45:00,30.7,29.0,29.78,East,93,2.0,-999.0,93,-99.99,,,0.00,weatherlink.com 1.10,2013-04-11 15:45:00,
2013-04-11 11:00:00,31.1,29.0,29.78,North,5,5.0,-999.0,93,-99.99,,,0.00,weatherlink.com 1.10,2013-04-11 16:00:00,
2013-04-11 11:15:00,32.1,30.0,29.78,East,81,15.0,-999.0,91,-99.99,,,0.00,weatherlink.com 1.10,2013-04-11 16:15:00,
2013-04-11 11:30:00,32.0,30.0,29.78,NE,48,5.0,-999.0,91,-99.99,,,0.02,weatherlink.com 1.10,2013-04-11 16:30:00,
2013-04-11 11:45:00,32.3,30.0,29.79,North,10,2.0,-999.0,91,-99.99,,,0.03,weatherlink.com 1.10,2013-04-11 16:45:00,
2013-04-11 12:00:00,32.3,30.0,29.79,East,82,4.0,-999.0,90,-99.99,,,0.05,weatherlink.com 1.10,2013-04-11 17:00:00,
2013-04-11 12:15:00,32.5,30.0,29.79,East,92,0.0,-999.0,90,-99.99,,,0.06,weatherlink.com 1.10,2013-04-11 17:15:00,
2013-04-11 12:30:00,32.8,30.0,29.78,North,5,3.0,-999.0,90,-99.99,,,0.07,weatherlink.com 1.10,2013-04-11 17:30:00,
2013-04-11 12:45:00,33.2,31.0,29.77,East,83,8.0,-999.0,91,-99.99,,,0.08,weatherlink.com 1.10,2013-04-11 17:45:00,
2013-04-11 13:00:00,33.2,31.0,29.77,East,86,2.0,-999.0,90,-99.99,,,0.09,weatherlink.com 1.10,2013-04-11 18:00:00,
2013-04-11 13:16:00,33.4,31.0,29.76,East,93,4.0,-999.0,90,-99.99,,,0.10,weatherlink.com 1.10,2013-04-11 18:16:00,
2013-04-11 13:30:00,33.4,30.8,29.76,ENE,68,4.0,15.0,90,0.06,,SKC,0.11,VWS V14.01,2013-04-11 18:30:00,
2013-04-11 13:31:00,33.4,31.0,29.76,East,83,4.0,-999.0,90,-99.99,,,0.11,weatherlink.com 1.10,2013-04-11 18:31:00,
2013-04-11 13:46:00,33.4,31.0,29.75,East,86,6.0,-999.0,90,-99.99,,,0.11,weatherlink.com 1.10,2013-04-11 18:46:00,
2013-04-11 14:00:00,33.4,30.8,29.75,ENE,68,4.0,18.0,90,0.04,,SKC,0.11,VWS V14.01,2013-04-11 19:00:00,
2013-04-11 14:16:00,33.5,31.0,29.73,North,360,6.0,-999.0,89,-99.99,,,0.13,weatherlink.com 1.10,2013-04-11 19:16:00,
2013-04-11 14:30:00,33.6,30.4,29.73,NE,45,3.0,15.0,88,0.05,,SKC,0.14,VWS V14.01,2013-04-11 19:30:00,
2013-04-11 14:31:00,33.6,31.0,29.73,ENE,76,0.0,-999.0,89,-99.99,,,0.14,weatherlink.com 1.10,2013-04-11 19:31:00,
2013-04-11 14:46:00,33.8,31.0,29.74,NNE,12,0.0,-999.0,88,-99.99,,,0.15,weatherlink.com 1.10,2013-04-11 19:46:00,
2013-04-11 15:00:00,33.6,30.4,29.74,NE,45,3.0,13.0,88,0.04,,SKC,0.15,VWS V14.01,2013-04-11 20:00:00,
2013-04-11 15:30:00,33.1,29.9,29.73,North,0,3.0,14.0,88,0.05,,SKC,0.16,VWS V14.01,2013-04-11 20:30:00,
2013-04-11 16:00:00,33.2,29.8,29.73,NNE,22,3.0,19.0,87,0.03,,SKC,0.17,VWS V14.01,2013-04-11 21:00:00,
2013-04-11 16:01:00,33.2,30.0,29.73,South,178,4.0,-999.0,87,-99.99,,,0.17,weatherlink.com 1.10,2013-04-11 21:01:00,
2013-04-11 16:16:00,33.4,30.0,29.74,ENE,73,0.0,-999.0,88,-99.99,,,0.17,weatherlink.com 1.10,2013-04-11 21:16:00,
2013-04-11 16:30:00,33.2,30.0,29.73,East,90,2.0,11.0,88,0.02,,SKC,0.17,VWS V14.01,2013-04-11 21:30:00,
2013-04-11 16:31:00,33.1,30.0,29.73,ENE,69,2.0,-999.0,89,-99.99,,,0.17,weatherlink.com 1.10,2013-04-11 21:31:00,
2013-04-11 17:00:00,32.5,30.2,29.74,NNE,22,3.0,12.0,91,0.02,,SKC,0.18,VWS V14.01,2013-04-11 22:00:00,
2013-04-11 17:16:00,32.2,30.0,29.74,NNE,20,2.0,-999.0,91,-99.99,,,0.18,weatherlink.com 1.10,2013-04-11 22:16:00,
2013-04-11 17:30:00,32.3,30.0,29.74,NNE,22,2.0,12.0,91,0.01,,SKC,0.18,VWS V14.01,2013-04-11 22:30:00,
2013-04-11 17:31:00,32.3,30.0,29.74,NE,39,1.0,-999.0,91,-99.99,,,0.18,weatherlink.com 1.10,2013-04-11 22:31:00,
2013-04-11 17:46:00,32.1,30.0,29.74,NNE,12,1.0,-999.0,91,-99.99,,,0.18,weatherlink.com 1.10,2013-04-11 22:46:00,
2013-04-11 18:00:00,31.8,29.5,29.75,North,0,3.0,10.0,91,0.01,,SKC,0.18,VWS V14.01,2013-04-11 23:00:00,
2013-04-11 18:01:00,31.8,30.0,29.75,NE,38,0.0,-999.0,91,-99.99,,,0.18,weatherlink.com 1.10,2013-04-11 23:01:00,
2013-04-11 18:16:00,31.5,29.0,29.75,North,350,4.0,-999.0,91,-99.99,,,0.18,weatherlink.com 1.10,2013-04-11 23:16:00,
2013-04-11 18:30:00,31.2,29.1,29.75,North,0,2.0,12.0,92,0.00,,SKC,0.18,VWS V14.01,2013-04-11 23:30:00,
2013-04-11 18:31:00,31.2,29.0,29.74,North,355,0.0,-999.0,91,-99.99,,,0.18,weatherlink.com 1.10,2013-04-11 23:31:00,
2013-04-11 18:46:00,30.9,29.0,29.75,NE,51,0.0,-999.0,92,-99.99,,,0.18,weatherlink.com 1.10,2013-04-11 23:46:00,
2013-04-11 19:00:00,30.9,28.9,29.74,NNE,22,2.0,9.0,92,0.00,,SKC,0.18,VWS V14.01,2013-04-12 00:00:00,
2013-04-11 19:01:00,30.8,29.0,29.74,NE,53,2.0,-999.0,92,-99.99,,,0.18,weatherlink.com 1.10,2013-04-12 00:01:00,
2013-04-11 19:16:00,30.7,29.0,29.73,NW,313,4.0,-999.0,92,-99.99,,,0.19,weatherlink.com 1.10,2013-04-12 00:16:00,
2013-04-11 19:30:00,30.7,28.1,29.74,NE,45,3.0,16.0,90,0.01,,SKC,0.19,VWS V14.01,2013-04-12 00:30:00,
2013-04-11 19:31:00,30.8,28.0,29.73,ESE,114,0.0,-999.0,90,-99.99,,,0.19,weatherlink.com 1.10,2013-04-12 00:31:00,
2013-04-11 20:00:00,30.4,27.8,29.73,North,0,3.0,10.0,90,0.01,,SKC,0.19,VWS V14.01,2013-04-12 01:00:00,
2013-04-11 20:16:00,30.0,28.0,29.73,NNW,346,2.0,-999.0,90,-99.99,,,0.19,weatherlink.com 1.10,2013-04-12 01:16:00,
2013-04-11 20:30:00,29.8,27.2,29.73,North,0,3.0,14.0,90,0.01,,SKC,0.19,VWS V14.01,2013-04-12 01:30:00,
2013-04-11 20:31:00,29.8,27.0,29.72,NNE,20,2.0,-999.0,90,-99.99,,,0.19,weatherlink.com 1.10,2013-04-12 01:31:00,
2013-04-11 20:46:00,29.7,27.0,29.73,NNE,28,5.0,-999.0,90,-99.99,,,0.19,weatherlink.com 1.10,2013-04-12 01:46:00,
2013-04-11 21:00:00,29.6,27.3,29.73,NNE,22,3.0,10.0,91,0.00,,SKC,0.19,VWS V14.01,2013-04-12 02:00:00,
2013-04-11 21:16:00,29.6,27.0,29.74,North,350,2.0,-999.0,91,-99.99,,,0.19,weatherlink.com 1.10,2013-04-12 02:16:00,
2013-04-11 21:30:00,29.3,27.0,29.74,North,0,2.0,9.0,91,0.00,,SKC,0.19,VWS V14.01,2013-04-12 02:30:00,
2013-04-11 21:31:00,29.3,27.0,29.74,NNE,17,5.0,-999.0,91,-99.99,,,0.19,weatherlink.com 1.10,2013-04-12 02:31:00,
2013-04-11 21:46:00,29.0,27.0,29.74,NNW,335,0.0,-999.0,92,-99.99,,,0.19,weatherlink.com 1.10,2013-04-12 02:46:00,
2013-04-11 22:00:00,29.0,27.0,29.74,North,0,2.0,8.0,92,0.00,,SKC,0.19,VWS V14.01,2013-04-12 03:00:00,
2013-04-11 22:01:00,28.9,27.0,29.73,NE,39,2.0,-999.0,92,-99.99,,,0.19,weatherlink.com 1.10,2013-04-12 03:01:00,
2013-04-11 22:16:00,29.0,27.0,29.74,NNE,28,3.0,-999.0,91,-99.99,,,0.19,weatherlink.com 1.10,2013-04-12 03:16:00,
2013-04-11 22:30:00,28.9,26.6,29.74,NNE,22,2.0,10.0,91,0.00,,SKC,0.19,VWS V14.01,2013-04-12 03:30:00,
2013-04-11 22:31:00,28.9,27.0,29.74,NE,56,2.0,-999.0,91,-99.99,,,0.19,weatherlink.com 1.10,2013-04-12 03:31:00,
2013-04-11 22:46:00,28.8,27.0,29.74,NE,52,1.0,-999.0,91,-99.99,,,0.19,weatherlink.com 1.10,2013-04-12 03:46:00,
2013-04-11 23:00:00,28.8,26.8,29.74,North,0,2.0,12.0,92,0.00,,SKC,0.19,VWS V14.01,2013-04-12 04:00:00,
2013-04-11 23:01:00,28.8,27.0,29.74,NNE,24,0.0,-999.0,91,-99.99,,,0.19,weatherlink.com 1.10,2013-04-12 04:01:00,
2013-04-11 23:16:00,28.7,26.0,29.74,WNW,302,1.0,-999.0,91,-99.99,,,0.19,weatherlink.com 1.10,2013-04-12 04:16:00,
2013-04-11 23:30:00,28.7,26.4,29.74,North,0,2.0,10.0,91,0.00,,SKC,0.19,VWS V14.01,2013-04-12 04:30:00,
2013-04-11 23:31:00,28.7,26.0,29.74,ENE,72,6.0,-999.0,91,-99.99,,,0.19,weatherlink.com 1.10,2013-04-12 04:31:00,
2013-04-11 23:46:00,28.7,26.0,29.74,NNW,332,8.0,-999.0,90,-99.99,,,0.19,weatherlink.com 1.10,2013-04-12 04:46:00,